Starlink 4776

operational
NORAD ID: 53837 Int'l Des: 2022-114 Owner: SPXS Country: US Constellation: starlink
LEOCIRCULAR

Starlink 4776について

説明を読み込み中...

リアルタイム位置

3D地球を読み込み中...

次回通過

高度履歴

Altitude vs Time

uPlot chart will show altitude changes over time

軌道要素

1 53837U 22114V 25257.54504236 -.00000591 00000-0 -19054-4 0 9996
2 53837 53.2200 14.5749 0001203 92.9634 267.1496 15.08836939166245
Epoch: Sep 14, 2025 • Age: 31 hours

現在のステータス

高度 543.2 km
速度 7.60 km/s
衛星直下点 42.86°N, 147.21°W
打ち上げ日 Sep 19, 2022
運用期間 2.9 years
タイプ internet

技術仕様

分類 Payload
質量 305.00 kg
乾燥質量 290.00 kg
総質量 305.00 kg
長さ 0.20 m
直径 2.80 m
スパン 9.00 m
形状 Box + pan
製造者 SPXS
バスタイプ Starlink
フェーズステータス In Orbit
所有者/国 SPXS/US

大規模コンステレーション

Loading constellations...